Lapse_Rate
7.4 7.6 7.2 7.3 7.0 7.3 7.4 7.5 7.9 7.4 6.9 7.1 6.9 6.0 6.0 6.1 6.0 6.3 6.1 6.1 6.0 5.8 6.0 6.0 5.9 5.9 5.9 5.7 5.7 5.7 5.7 5.7 5.7 5.7 5.7 5.7 5.7 5.8 5.9 5.9 5.9 5.9 5.8 5.8 5.7 5.7 5.8 5.9 5.8
7.7 7.7 7.5 7.3 7.5 7.9 7.7 7.8 7.7 7.0 7.0 6.8 6.6 6.4 6.1 6.1 6.1 6.1 6.1 6.0 6.0 5.9 6.0 6.1 6.1 5.9 5.8 5.7 5.7 5.7 5.7 5.7 5.7 5.7 5.7 5.7 5.8 5.8 5.8 5.9 5.9 5.9 5.9 6.1 6.1 6.1 6.1 6.1 6.0
7.7 7.6 7.5 7.4 7.6 7.7 8.3 7.7 7.0 7.3 7.0 6.8 6.7 6.4 6.5 6.6 6.2 6.2 6.0 6.0 6.0 6.1 6.2 6.0 5.9 5.7 5.7 5.7 5.7 5.7 5.7 5.6 5.6 5.6 5.6 5.7 5.7 5.8 5.8 5.9 6.0 6.1 6.1 6.2 6.3 6.3 6.3 6.3 6.3
7.4 7.5 7.6 7.6 8.0 8.0 7.8 7.5 7.1 7.3 7.0 6.8 6.8 6.4 6.5 6.2 6.1 6.1 6.0 6.1 6.2 6.2 6.1 5.8 5.7 5.6 5.6 5.7 5.6 5.6 5.7 5.6 5.6 5.7 5.8 5.9 6.0 6.1 6.1 6.2 6.2 6.4 6.4 6.5 6.6 6.6 6.6 6.6 6.6
7.6 7.4 7.7 7.8 8.1 7.7 7.8 7.0 7.3 7.2 7.0 6.8 6.4 5.8 6.4 6.2 6.1 6.0 6.1 6.1 6.0 6.0 5.9 5.8 5.7 5.7 5.8 5.7 5.7 5.7 5.7 5.8 5.9 5.9 6.1 6.2 6.3 6.3 6.4 6.5 6.5 6.6 6.6 6.6 6.7 6.7 6.8 6.8 6.9
7.5 7.7 7.8 8.1 8.3 7.6 7.7 7.5 7.3 6.9 6.3 6.4 6.3 6.0 6.4 6.2 6.1 6.1 6.1 6.0 6.0 6.0 6.0 5.9 5.8 5.8 5.8 5.9 5.9 5.9 6.0 5.9 6.0 6.1 6.2 6.3 6.4 6.4 6.5 6.5 6.5 6.5 6.5 6.6 6.6 6.7 6.7 6.8 6.8
7.7 7.4 7.9 8.3 8.1 7.5 7.4 7.5 7.3 6.7 6.0 6.4 6.2 6.0 6.5 6.2 6.2 6.1 6.1 6.1 6.1 6.0 6.0 5.9 5.8 5.9 5.9 5.9 5.8 5.8 5.9 6.0 6.1 6.1 6.2 6.3 6.3 6.4 6.4 6.4 6.5 6.5 6.5 6.5 6.5 6.6 6.6 6.6 6.7
7.5 7.3 7.7 7.8 7.9 7.7 7.1 7.5 7.1 6.7 5.9 6.2 6.4 5.4 6.2 6.2 6.1 6.2 6.2 6.1 6.1 6.1 6.0 6.0 5.9 5.9 5.8 5.8 5.8 5.9 6.0 6.0 5.9 5.9 6.0 6.1 6.2 6.3 6.4 6.4 6.5 6.5 6.5 6.6 6.6 6.7 6.7 6.7 6.8
7.5 7.1 7.6 7.8 7.5 7.3 6.8 7.2 7.1 6.6 6.4 6.3 6.1 6.0 6.4 6.3 6.2 6.2 6.2 6.2 6.1 6.1 6.0 5.8 5.8 5.8 5.8 5.8 5.9 5.9 5.9 5.8 5.8 5.8 5.9 6.0 6.1 6.2 6.2 6.3 6.3 6.4 6.6 6.7 6.8 6.8 6.7 6.8 6.8
7.4 7.2 7.3 7.2 7.1 6.8 6.4 6.8 6.7 6.6 6.2 6.5 6.4 6.2 6.1 6.1 6.1 6.2 6.1 6.1 6.1 6.0 5.8 5.7 5.7 5.7 5.7 5.8 5.8 5.8 5.7 5.6 5.7 5.9 6.0 6.0 6.1 6.2 6.2 6.3 6.3 6.4 6.5 6.5 6.6 6.5 6.4 6.4 6.4
7.1 7.3 7.0 6.8 6.8 6.8 6.6 6.7 6.4 6.7 6.6 6.6 6.3 6.1 6.0 6.1 6.1 6.1 6.1 6.1 6.0 5.9 5.7 5.6 5.6 5.6 5.6 5.7 5.8 5.7 5.6 5.7 5.7 5.8 5.8 5.9 6.0 6.2 6.3 6.4 6.4 6.4 6.4 6.3 6.2 6.2 6.1 6.1 6.1
6.9 7.1 6.8 6.5 6.8 6.7 6.6 6.6 6.7 6.5 6.2 6.5 6.2 6.3 6.2 6.3 6.2 6.1 6.1 6.0 5.9 5.7 5.6 5.5 5.6 5.6 5.6 5.7 5.8 5.7 5.7 5.5 5.5 5.6 5.7 5.9 6.1 6.2 6.2 6.3 6.3 6.2 6.2 6.1 6.1 6.2 6.2 6.1 6.0
6.6 6.5 6.8 6.8 6.8 6.7 6.5 6.6 6.5 6.8 6.3 6.6 6.0 6.4 6.3 6.3 6.2 6.2 6.1 6.1 6.0 5.8 5.6 5.6 5.6 5.6 5.6 5.7 5.7 5.6 5.4 5.4 5.5 5.7 5.8 6.0 6.0 6.1 6.2 6.2 6.1 6.1 6.1 6.1 6.1 6.1 6.0 5.9 5.7
6.3 6.6 6.7 6.7 6.7 6.7 6.6 6.6 6.4 7.0 6.5 6.6 6.5 6.5 6.4 6.3 6.2 6.1 6.2 6.1 5.8 5.8 5.7 5.6 5.6 5.6 5.7 5.7 5.7 5.5 5.5 5.5 5.5 5.6 5.8 5.9 6.0 6.0 6.1 5.9 5.9 5.9 5.9 5.9 5.8 5.7 5.6 5.3 5.0
6.3 6.3 6.4 6.5 6.6 6.5 6.5 6.4 7.2 7.0 6.6 6.7 6.6 6.4 6.4 6.3 6.2 6.3 6.1 6.0 5.8 6.0 5.9 5.7 5.6 5.6 5.6 5.6 5.6 5.6 5.5 5.4 5.5 5.6 5.7 5.7 5.8 5.9 5.7 5.6 5.7 5.7 5.6 5.5 5.3 5.2 5.0 4.6 4.4
6.2 6.3 6.0 6.3 6.9 6.6 6.5 6.7 6.5 7.0 6.9 6.7 6.6 6.4 6.5 6.4 6.4 6.2 6.2 6.1 6.0 6.0 5.8 5.7 5.6 5.6 5.6 5.6 5.6 5.5 5.4 5.4 5.5 5.5 5.5 5.6 5.6 5.5 5.3 5.3 5.4 5.4 5.2 5.0 4.8 4.4 4.1 4.1 4.1
6.0 6.4 6.5 6.3 6.6 6.5 6.5 6.9 6.4 6.8 6.9 6.7 6.7 6.6 6.5 6.5 6.6 6.5 6.4 6.2 6.1 5.9 5.8 5.8 5.7 5.6 5.6 5.6 5.5 5.4 5.3 5.3 5.4 5.4 5.4 5.4 5.3 5.1 5.0 5.0 5.1 4.9 4.6 4.3 4.0 3.9 3.9 4.0 4.0
6.8 6.3 6.5 6.5 6.3 6.5 6.5 7.0 6.6 6.9 6.6 6.7 6.6 6.6 6.7 6.8 6.9 6.5 6.2 6.2 6.1 6.0 5.9 5.8 5.7 5.6 5.5 5.5 5.5 5.4 5.3 5.2 5.4 5.3 5.4 5.2 5.0 4.9 4.7 4.8 4.7 4.4 4.2 3.9 3.8 3.7 3.8 4.0 4.1
6.2 6.3 6.6 6.8 6.0 6.0 6.5 6.6 6.8 6.7 6.8 6.8 6.7 6.7 6.9 6.9 6.8 6.4 6.3 6.3 6.2 6.2 6.0 5.8 5.7 5.5 5.5 5.5 5.4 5.3 5.2 5.3 5.3 5.2 5.1 4.9 4.8 4.7 4.6 4.6 4.5 4.2 3.9 3.8 3.7 3.9 4.0 4.1 4.2
5.8 5.7 6.2 6.4 6.0 5.9 6.1 5.8 6.8 6.6 6.9 7.3 7.3 7.0 7.0 6.9 6.7 6.6 6.5 6.4 6.5 6.2 5.9 5.8 5.7 5.7 5.5 5.5 5.4 5.2 5.2 5.2 5.2 5.0 4.9 4.9 4.8 4.4 4.4 4.3 4.1 4.0 3.9 3.9 3.9 3.8 3.9 4.1 4.2
6.1 5.7 6.0 6.2 5.9 5.9 5.8 6.0 7.1 7.6 7.3 7.6 7.5 7.6 7.0 7.1 7.0 6.6 6.6 6.5 6.3 6.2 5.9 5.6 5.6 5.6 5.5 5.5 5.3 5.2 5.2 5.1 5.0 5.0 5.1 4.9 4.6 4.5 4.4 4.3 4.2 4.1 3.9 3.8 3.8 3.8 4.0 4.1 4.1
5.5 5.9 5.9 5.7 5.5 6.0 5.4 5.4 6.3 6.9 7.0 7.8 7.9 7.7 7.7 7.1 7.0 6.8 6.9 6.6 6.5 6.1 5.7 5.6 5.6 5.5 5.5 5.4 5.3 5.2 5.2 5.2 5.0 5.1 5.1 4.9 4.7 4.6 4.5 4.3 4.2 4.0 3.8 3.9 3.8 3.8 3.8 3.7 4.0
5.5 6.1 5.9 5.9 5.1 5.4 5.3 4.6 5.6 6.5 7.0 7.7 8.1 7.7 7.4 7.0 6.9 6.9 7.2 6.8 6.3 6.0 5.9 5.7 5.8 5.8 5.8 5.5 5.4 5.4 5.3 5.2 5.1 5.0 4.8 4.6 4.5 4.4 4.3 4.2 4.1 3.9 3.8 3.7 3.7 3.7 3.5 3.3 3.3
5.3 5.7 5.7 5.6 5.3 4.8 5.0 5.6 5.5 6.5 7.0 7.4 7.6 8.0 7.6 7.3 7.2 7.1 7.3 6.9 6.4 6.1 6.3 6.2 6.2 6.0 5.8 5.6 5.5 5.3 5.1 5.1 5.0 4.8 4.6 4.5 4.4 4.3 4.2 4.1 4.0 3.8 3.7 3.6 3.5 3.2 2.9 2.8 2.8
5.2 5.3 6.0 5.6 5.0 5.4 5.9 5.8 5.4 7.0 7.2 7.2 7.7 8.0 7.9 7.7 7.4 7.3 7.4 7.2 6.8 6.6 6.6 6.4 6.4 6.1 5.7 5.6 5.4 5.2 5.2 5.1 4.8 4.6 4.5 4.4 4.3 4.2 4.2 4.0 3.8 3.7 3.6 3.4 3.0 2.7 2.7 2.4 3.4
6.4 5.8 6.5 6.4 6.2 6.9 4.2 4.2 5.4 7.2 7.4 7.4 7.6 7.4 7.5 7.5 7.2 7.1 7.2 7.0 6.8 6.6 6.4 6.2 6.1 6.1 5.8 5.6 5.4 5.3 5.1 4.9 4.7 4.5 4.4 4.3 4.3 4.1 4.0 3.9 3.8 3.7 3.5 3.1 2.8 2.6 2.4 3.0 3.7
4.9 5.0 6.0 6.3 6.0 5.4 5.9 5.7 6.3 6.8 7.2 7.4 7.5 7.5 7.2 7.3 7.1 7.1 7.1 7.0 6.7 6.6 6.4 6.3 6.2 6.0 5.6 5.4 5.2 5.2 5.0 4.7 4.5 4.5 4.4 4.3 4.2 4.1 3.9 3.9 3.7 3.7 3.3 2.8 2.5 2.4 3.0 3.7 4.2
5.5 5.6 5.5 5.3 6.0 6.3 6.8 6.9 6.8 7.2 7.5 7.6 7.5 7.4 7.4 7.3 7.2 7.2 7.0 6.8 6.7 6.5 6.5 6.3 6.0 5.7 5.4 5.3 5.2 5.1 4.7 4.6 4.5 4.4 4.4 4.3 4.2 4.1 4.0 3.8 3.8 3.6 3.0 2.7 2.5 2.9 3.8 4.1 4.4
5.1 5.1 5.5 6.0 6.3 6.9 7.0 8.0 7.2 7.2 7.2 7.3 7.4 7.6 7.6 7.5 7.3 7.1 6.9 6.8 6.7 6.6 6.3 5.9 5.7 5.4 5.3 5.2 5.1 4.9 4.7 4.5 4.5 4.6 4.4 4.3 4.3 4.1 3.9 4.0 3.7 3.3 2.9 2.8 3.0 3.8 4.1 4.6 4.4
5.2 5.4 5.7 6.2 6.6 5.7 6.1 6.6 7.3 7.6 7.4 7.2 7.5 7.4 7.3 7.4 7.3 7.1 7.0 6.8 6.7 6.5 6.2 5.7 5.4 5.3 5.2 5.1 4.9 4.8 4.6 4.6 4.7 4.6 4.4 4.4 4.2 4.0 4.0 4.0 3.5 3.2 2.9 3.0 3.7 4.4 4.8 4.8 4.5
Wind_Speed
13 6 3 5 5 5 1 3 2 6 7 2 3 2 5 10 7 2 8 6 7 6 9 14 13 16 17 17 18 19 19 20 20 20 20 20 21 21 21 21 21 21 21 20 21 21 21 22 22
7 4 4 3 6 4 4 5 8 9 6 8 6 3 2 5 6 12 11 7 8 7 11 14 13 16 16 17 18 18 19 20 20 20 20 21 21 21 21 22 22 22 21 21 21 21 21 21 21
7 3 3 3 2 9 3 12 9 9 10 7 4 2 3 6 10 10 11 9 9 9 13 13 14 14 14 15 16 17 19 20 20 20 21 21 21 21 21 22 21 21 21 21 21 21 21 21 22
2 2 3 6 11 3 3 9 8 13 6 5 3 5 4 6 9 9 11 10 9 10 14 13 13 12 13 15 16 17 18 18 19 19 20 20 20 20 20 20 20 20 20 20 20 20 20 21 21
3 4 6 8 12 1 4 8 12 14 9 8 9 7 6 6 9 12 10 9 10 10 14 13 12 12 14 15 16 16 17 18 18 18 18 18 18 18 18 19 19 19 19 20 20 20 20 20 20
4 4 8 10 13 4 5 8 12 13 8 8 7 7 6 13 13 11 9 9 10 10 11 12 12 13 14 15 15 16 17 17 17 17 16 16 17 18 18 18 20 20 19 20 19 19 19 20 20
6 8 13 13 10 7 10 10 12 11 10 10 3 8 7 14 13 12 10 10 10 11 11 10 11 14 14 15 15 15 16 15 15 16 15 14 15 15 16 16 18 19 19 20 19 20 20 21 21
5 6 14 11 11 12 8 12 5 11 9 3 8 7 7 18 16 13 11 10 9 9 9 9 9 8 10 11 12 13 13 12 13 13 13 11 12 14 14 13 16 17 17 19 18 21 21 22 21
3 6 11 14 11 11 8 13 6 1 6 10 9 3 6 22 18 14 12 10 9 8 8 9 8 9 8 7 8 8 8 9 11 13 13 12 13 14 15 14 16 18 19 21 19 21 21 21 19
5 8 13 13 7 8 10 15 12 7 14 13 11 4 11 21 19 17 15 13 12 11 10 8 9 8 6 6 5 5 6 8 11 13 14 13 15 16 17 16 18 19 19 19 20 20 20 18 18
6 13 13 7 6 5 10 13 13 13 15 16 18 15 18 19 18 17 16 15 14 12 9 9 8 7 5 5 4 4 5 6 8 12 14 14 14 15 15 14 15 16 17 16 18 18 16 19 17
9 12 8 2 4 4 11 7 13 17 13 8 14 18 19 21 20 18 17 15 15 13 11 9 9 7 6 5 3 4 5 6 7 10 13 13 12 13 14 13 16 15 16 17 16 14 19 19 21
12 13 6 6 6 10 8 13 17 16 18 5 8 18 21 20 20 18 16 15 14 14 12 11 10 8 7 4 4 3 4 5 6 8 11 13 12 11 14 14 15 15 16 16 15 15 15 16 18
1 9 10 7 10 8 9 14 6 13 15 12 13 18 20 22 22 19 17 17 16 14 14 12 10 9 8 5 5 4 4 4 6 8 9 11 12 12 11 11 12 13 15 16 15 13 11 10 14
5 7 10 13 12 7 9 15 19 16 13 16 17 17 19 21 21 21 19 18 17 14 14 13 11 11 9 7 5 4 4 4 5 7 8 9 12 13 14 11 10 13 16 18 16 15 14 10 11
7 6 9 7 14 5 10 15 10 22 16 18 18 17 19 22 23 21 19 17 17 15 15 13 10 11 9 7 5 4 4 4 4 5 7 9 12 13 14 11 11 16 16 15 11 9 10 10 11
10 13 15 8 15 7 15 13 5 7 17 18 19 19 18 19 22 21 20 18 17 16 15 14 13 11 10 8 6 4 3 3 3 5 6 10 11 13 13 13 14 16 14 11 9 9 11 11 11
12 17 13 12 11 16 14 22 12 8 14 18 18 19 20 21 23 21 21 19 17 16 15 14 11 11 9 6 5 4 3 1 2 4 6 9 11 13 13 13 14 15 8 9 9 13 11 11 11
10 14 16 8 7 10 19 21 20 18 16 18 19 20 21 22 21 20 20 19 18 17 16 16 14 12 8 6 5 4 3 1 2 5 7 10 11 12 13 12 13 14 9 11 12 11 12 10 11
20 17 19 14 7 7 14 21 21 20 23 23 23 23 23 22 22 21 21 19 20 18 17 16 14 13 9 6 3 1 1 0 2 3 7 9 11 13 13 13 9 12 9 12 12 12 10 9 10
19 20 16 16 1 13 12 18 21 19 26 24 22 22 22 23 23 23 22 21 18 19 18 16 15 13 10 7 5 3 2 3 2 4 6 9 13 13 13 14 14 12 9 8 11 11 13 11 9
19 16 16 12 5 8 4 9 14 13 14 16 21 21 22 22 22 21 23 22 20 17 15 16 14 13 10 9 6 4 1 3 3 5 5 8 13 14 14 15 15 14 10 11 10 10 11 11 11
9 3 9 10 11 13 14 7 7 14 15 16 17 18 18 19 20 21 22 20 20 17 14 14 15 13 11 9 6 4 3 2 3 5 8 10 10 13 14 14 14 11 8 11 12 12 12 10 11
13 8 6 4 5 8 17 15 8 14 17 14 4 14 16 18 18 18 19 19 19 15 14 13 15 13 11 9 7 4 1 2 4 6 7 7 7 7 12 13 14 14 11 11 10 12 13 12 12
12 9 4 5 5 9 1 12 14 10 3 3 5 7 13 15 18 18 20 18 17 17 16 14 16 14 12 10 7 5 2 2 6 7 7 9 8 7 9 12 11 9 13 13 12 12 12 13 11
22 16 5 8 7 9 3 8 7 8 5 11 7 3 11 15 16 17 18 17 17 18 17 16 15 13 12 9 7 4 2 2 4 6 7 7 8 8 12 11 14 16 16 14 13 10 10 12 11
8 14 13 16 6 5 7 11 13 8 7 6 9 8 12 15 16 18 18 17 17 17 17 16 15 13 11 8 6 4 2 3 5 8 8 7 9 8 11 14 12 13 14 13 13 9 13 12 12
8 12 6 6 6 14 9 15 8 6 13 13 12 12 12 14 16 16 15 16 15 16 14 14 13 13 10 8 5 2 2 4 5 7 8 10 10 11 12 13 13 14 14 13 13 11 12 13 11
7 8 8 5 9 8 11 9 9 3 8 11 12 11 13 15 16 16 15 15 15 15 14 13 12 12 9 6 4 2 3 4 5 7 8 9 10 11 12 13 13 14 14 14 13 13 14 14 14
19 17 20 8 11 6 3 7 4 6 5 4 10 11 11 14 15 15 15 16 16 15 14 13 11 10 7 5 3 2 3 4 6 7 9 9 11 11 12 13 14 14 14 14 14 13 13 13 14
Wind_Direction
278 266 257 234 242 242 134 175 25 155 174 104 22 356 53 37 9 51 128 143 113 92 79 79 64 66 65 62 62 61 58 56 54 51 48 47 44 39 37 35 32 29 21 17 15 9 5 2 0
282 282 234 257 256 252 155 146 189 180 89 135 129 152 123 86 70 121 139 125 110 94 79 75 72 71 68 67 63 62 60 57 54 51 48 46 45 40 38 35 31 28 22 19 17 14 10 5 359
232 253 260 254 232 243 224 185 174 131 145 159 133 342 92 96 121 126 112 133 123 105 91 83 80 76 74 71 68 63 60 57 54 50 47 44 42 40 37 33 30 26 20 17 14 11 8 5 1
297 209 232 241 235 186 319 185 150 154 155 201 117 142 93 4 126 123 132 140 118 105 101 94 88 85 80 76 73 69 65 60 55 51 47 43 39 36 34 31 26 21 17 14 11 7 5 1 358
217 252 253 240 255 162 210 163 172 173 166 178 196 147 122 138 115 130 137 138 128 112 115 103 97 93 86 82 77 72 66 60 53 48 44 40 36 33 30 26 20 16 10 7 2 359 357 354 350
243 263 250 245 243 176 209 173 186 186 171 166 191 147 126 140 150 141 142 132 129 124 119 111 102 94 90 85 77 68 60 54 50 45 41 39 35 30 26 22 15 10 6 1 357 355 350 345 341
248 244 256 273 280 195 217 187 198 194 185 184 260 199 117 166 153 153 143 138 133 134 131 129 119 110 92 79 70 63 61 57 51 43 37 33 31 21 17 12 8 2 357 353 347 346 343 339 335
269 264 264 254 262 251 178 188 218 209 214 84 180 207 188 177 156 150 147 143 141 138 135 131 133 117 101 87 74 72 65 57 49 42 29 23 16 13 5 5 359 353 349 345 341 342 339 336 330
248 253 254 261 264 266 161 199 193 315 173 194 190 298 84 148 158 156 155 155 152 150 147 142 134 119 110 102 96 102 76 58 43 30 22 15 11 6 355 356 349 346 344 341 340 338 336 332 328
225 246 257 283 274 260 206 214 172 193 205 202 192 137 148 152 167 170 171 169 171 161 152 146 135 125 120 112 105 79 60 48 40 31 18 14 8 2 352 349 346 343 342 337 338 336 332 335 329
207 243 266 248 250 243 222 216 189 215 213 217 207 181 165 170 179 180 182 178 173 162 158 148 138 133 139 112 108 79 59 46 38 30 22 10 5 356 352 345 345 340 341 339 337 336 334 327 325
248 244 260 283 207 227 224 227 221 217 221 218 210 175 174 180 185 188 188 178 169 166 156 151 146 144 134 134 114 101 71 52 40 30 25 11 2 353 349 345 342 341 340 337 336 332 327 326 322
241 256 248 248 233 232 240 234 223 225 238 173 212 159 182 188 189 191 190 176 169 170 162 162 158 151 143 150 140 113 83 62 48 36 28 16 0 351 343 341 338 337 337 336 332 327 327 322 322
325 249 240 227 220 217 223 233 217 233 224 194 192 184 188 192 191 188 187 181 179 170 169 161 163 156 155 168 162 131 93 64 47 39 26 13 357 346 342 337 334 332 337 334 323 323 319 316 313
214 234 219 227 217 226 213 245 229 234 206 199 200 196 195 197 192 193 187 185 181 174 169 168 164 162 167 174 167 139 112 78 49 32 22 9 356 347 342 336 331 333 333 326 322 316 314 309 309
223 233 240 191 191 195 194 257 231 213 197 208 204 203 200 199 196 194 187 187 183 173 171 169 167 172 174 174 173 147 113 76 53 27 11 6 351 347 340 334 330 331 327 322 317 316 314 312 307
212 252 225 218 195 176 202 263 273 187 193 218 211 209 203 202 201 196 189 188 183 177 173 170 174 176 175 171 172 148 115 63 51 20 5 359 345 346 339 330 324 325 319 313 312 312 312 308 306
235 226 252 237 192 214 216 246 244 198 219 226 222 214 208 207 204 196 191 187 183 178 177 174 175 177 176 170 175 173 155 101 30 11 6 348 343 340 335 323 318 320 311 307 309 308 305 302 302
285 279 249 252 114 213 237 251 250 240 215 229 228 218 215 210 202 197 191 187 183 181 179 179 178 177 177 185 193 196 201 268 338 0 353 343 335 333 327 317 316 314 308 308 306 305 307 307 311
239 254 256 263 149 217 265 262 260 247 243 227 226 226 216 210 202 192 190 188 186 184 182 180 182 178 186 187 169 170 146 359 350 323 332 335 332 326 318 316 311 309 308 306 306 310 308 302 304
232 237 250 256 133 235 282 274 254 244 233 236 225 224 225 211 204 192 193 190 185 187 185 184 181 177 178 172 153 167 180 214 277 337 327 330 323 320 315 314 311 309 309 306 308 304 304 303 304
240 231 245 263 234 263 189 286 284 280 235 223 229 217 222 213 205 194 191 192 188 188 182 183 179 177 171 170 178 184 236 290 330 319 315 316 316 314 312 310 309 308 306 302 302 303 307 301 298
247 160 202 226 244 271 244 264 267 251 250 237 213 223 216 216 200 196 184 190 189 185 179 178 175 174 168 173 178 180 209 290 318 311 312 313 310 313 308 307 305 301 299 299 300 300 301 297 294
134 121 126 193 249 249 237 227 238 245 250 249 91 200 210 210 196 191 178 186 187 179 172 176 173 173 165 166 164 174 202 306 309 310 310 309 312 308 305 306 304 301 297 299 302 298 295 293 290
184 175 208 224 209 252 221 227 244 286 238 228 183 206 193 194 193 184 179 182 181 174 173 178 174 170 167 168 165 171 197 290 295 306 307 309 308 307 306 309 304 303 303 301 298 295 290 292 290
197 197 190 227 217 238 129 229 246 249 294 192 169 186 173 184 187 184 179 181 179 172 178 175 171 165 169 169 166 170 196 279 295 296 302 299 299 300 305 304 304 303 303 301 299 297 295 291 291
179 220 243 267 282 271 218 243 261 193 189 187 193 180 176 177 182 181 179 180 177 174 177 172 169 160 164 162 164 180 227 276 293 296 298 295 299 302 304 305 304 304 305 304 302 296 295 295 294
220 158 187 219 231 249 241 247 246 206 227 208 196 189 177 173 176 175 176 174 170 171 165 160 161 158 157 159 164 186 265 281 290 296 296 298 300 305 304 304 307 307 304 303 303 300 296 297 296
183 198 217 258 218 246 259 241 214 276 173 192 198 192 174 171 170 170 169 165 155 151 153 152 153 149 156 155 157 209 267 287 292 291 296 301 306 305 306 306 307 305 305 306 303 301 301 301 302
221 216 209 228 205 229 281 255 120 118 110 168 168 171 162 170 166 161 154 149 149 152 152 152 150 151 146 146 169 225 274 285 293 300 305 309 307 307 306 308 306 304 306 306 304 304 304 301 301